Weather in Novonikol'skoye

Russia / Tyumen Oblast     57°39′25″N   65°14′15″E
temp.,
°C
wind,
m/s
gust,
m/s
humid.,
%
clouds,
%
prec.,
mm/h
press.,
hPa
HPBL,
m
25 january, tue
tue2523:00−11wsw399671 0.1 1031214
02:00−12wsw399888 0.0 1029188
05:00−13wsw31194100 0.0 1028248
08:00−10sw41294100 0.3 1025419
11:00−8wsw41295100 2.6 1023619
14:00−6w4993100 1.0 1021789
17:00−6w3995100 1.4 1022544
20:00−7w3994100 0.2 1022415
26 january, wed
wed2623:00−9w389299 0.3 1022255
02:00−13wsw289554 0.0 1023136
05:00−15wsw289748 0.0 1024130
08:00−15wsw279693 0.0 1024110
11:00−12wsw38905 0.0 1025164
14:00−9wsw35845 0.0 1025211
17:00−13ssw239699 0.0 102641
20:00−13sw3993100 0.0 1026126
27 january, thu
thu2723:00−14ssw2793100 0.0 1025111
02:00−15s3892100 0.0 1025127
05:00−15s3892100 0.0 1024153
08:00−14s31191100 0.0 1023217
11:00−12s41383100 0.0 1022342
14:00−9s4129087 0.0 1021480
17:00−10ssw4119483 0.0 1022334
20:00−12ssw3109672 0.0 1022237
28 january, fri
fri2823:00−13ssw3109661 0.0 1022184
02:00−15ssw279768 0.0 1022122
05:00−14sw2797100 0.0 1023131
08:00−13sw2796100 0.0 1023139
11:00−11sw27945 0.0 1024198
14:00−8sw368853 0.0 1024302
17:00−13s219866 0.0 102410
20:00−15ssw2210089 0.0 102519
29 january, sat
sat2923:00−17s11100100 0.0 102510
02:00−15sse13100100 0.0 102447
05:00−11se1497100 0.1 102493
08:00−11ese2598100 0.1 1023110
11:00−10se2592100 0.2 1022162
14:00−8se2585100 0.0 1021257
17:00−10ese2594100 0.0 1020116
20:00−12ese2696100 0.0 1019133